Weather Roundup
Issued by NWS Chicago, IL

Home | Current Version | Previous Version | Text Only | Print | Product List | Glossary Off
Versions: 1 2 3 4 5 6 7 8 9 10 11 12 13 14 15 16 17 18 19 20 21 22 23 24 25 26 27 28 29 30 31 32 33 34 35 36 37 38 39 40 41 42 43 44 45 46 47 48 49 50

000
NZUS59 KLOT 251508
HRRLOT

CHICAGO AREA WEATHER ROUNDUP
NATIONAL WEATHER SERVICE CHICAGO/ROMEOVILLE IL
1000 AM CDT MON JUL 25 2016

NOTE: "FAIR" INDICATES FEW OR NO CLOUDS BELOW 12,000 FEET WITH NO
SIGNIFICANT WEATHER AND/OR OBSTRUCTIONS TO VISIBILITY.

* THESE STATIONS ARE NOT UNDER NWS QUALITY CONTROL. THEY ALSO MAY NOT
  REPORT WEATHER SUCH AS PRECIPITATION OR FOG.

ILZ005-006-012>014-019>023-251600-
NORTHEAST ILLINOIS

CITY           SKY/WX    TMP DP  RH WIND       PRES   REMARKS
OHARE          MOSUNNY   80  64  58 N7        30.00R HX  82
MIDWAY         CLOUDY    82  65  56 NW6       30.00R HX  84
AURORA         CLOUDY    80  67  64 N10       30.01R HX  82
LANSING*       MOSUNNY   80  61  51 NE9       30.01R HX  81
JOLIET*        MOSUNNY   82  68  63 N8        30.00S HX  84
WAUKEGAN       SUNNY     81  65  58 N8        29.99R HX  83
DUPAGE AIRPORT CLOUDY    80  65  59 N9        30.01R HX  82
WHEELING       SUNNY     81  64  56 N8        30.01R HX  82
KANKAKEE*      MOSUNNY   80  71  72 N5        30.00S HX  84
MORRIS*        MOSUNNY   79  69  71 CALM      29.99S HX  82
LEWIS AIRPORT* CLOUDY    80  64  59 N6        30.01S HX  82
NORTHERLY ISL    N/A     80  60  50 N10         N/A  HX  81
$$

WIZ051-052-058>065-066-070>072-251600-
SOUTHEAST WISCONSIN

CITY           SKY/WX    TMP DP  RH WIND       PRES   REMARKS
MILWAUKEE      MOSUNNY   81  63  54 NW8       29.99R HX  82
KENOSHA*       SUNNY     80  66  62 VRB7      30.00R HX  82
RACINE*        SUNNY     80  66  62 W8        30.01R HX  82
BURLINGTON     SUNNY     78  67  67 W5        30.01R HX  80
WAUKESHA       SUNNY     75  63  64 NW15      30.02R
WEST BEND      SUNNY     77  63  61 NW10      30.00S
$$

INZ001>003-010>013-019-020-251600-
NORTHWEST INDIANA

CITY           SKY/WX    TMP DP  RH WIND       PRES   REMARKS
GARY*          PTSUNNY   81 N/A N/A N14       30.01R
MICHIGAN CITY* NOT AVBL
RENSSELAER*    NOT AVBL
VALPARAISO     MOSUNNY   80  67  64 N7        30.01R HX  82
$$

LMZ740>746-251600-
SOUTHERN LAKE MICHIGAN

STATION/POSITION TIME  SKY/WX   TEMP WIND        PRES    VSBY
                                AIR  DIR/SP/G
                 (UTC)          (F)  (DEG/KT/KT) (MB)    (MI)
HARRISON CRIB    1400            75  340/ 12/ 13   N/A
BURNHAM HARBOR   1500            80   20/  7/ 12   N/A
CALUMET HARBOR   1400            78  340/  7/ 10 1015.2R
BURNS HARBOR     1400            74  340/  9/ 12 1015.9R
MICHIGAN CITY    1400            75  310/ 13/ 14   N/A
$$

ABBREVIATIONS USED IN REMARKS
   TC - TEMPERATURE IN CELSIUS
  WCI - WIND CHILL INDEX
   HX - HEAT INDEX
  VSB - VISIBILITY
$$




USA.gov is the U.S. government's official web portal to all federal, state and local government web resources and services.